Printer-friendly version

IAU Minor Planet Center

Minor Planet Center

MPEC 2006-E23 : 2006 EB1

The following Minor Planet Electronic Circular may be linked-to from your own Web pages, but must not otherwise be redistributed electronically.


Read MPEC 2006-E22 Read MPEC 2006-E24


M.P.E.C. 2006-E23                                Issued 2006 Mar. 6, 20:28 UT

     The Minor Planet Electronic Circulars contain information on unusual
         minor planets and routine data on comets.  They are published
   on behalf of Commission 20 of the International Astronomical Union by the
          Minor Planet Center, Smithsonian Astrophysical Observatory,
                          Cambridge, MA 02138, U.S.A.

                  Supported in part by the Brinson Foundation
                  Supported in part by the TABASGO Foundation
             Prepared using the Tamkin Foundation Computer Network

                              MPC@CFA.HARVARD.EDU
          URL http://cfa-www.harvard.edu/iau/mpc.html  ISSN 1523-6714

                                   2006 EB1

Observations:
     K06E01B* C2006 03 04.42579 13 16 22.72 +09 36 44.5          18.1 V EE023703
     K06E01B  C2006 03 04.43234 13 16 31.54 +09 37 32.0          17.9 V EE023703
     K06E01B  C2006 03 04.43922 13 16 40.80 +09 38 20.8          17.9 V EE023703
     K06E01B  C2006 03 04.44612 13 16 50.05 +09 39 11.6          17.9 V EE023703
     K06E01B  C2006 03 04.47331 13 17 26.59 +09 42 26.8          17.8 V EE023703
     K06E01B  C2006 03 04.47383 13 17 27.20 +09 42 30.1          17.8 V EE023703
     K06E01B  C2006 03 04.47436 13 17 27.96 +09 42 35.2          17.8 V EE023703
     K06E01B  C2006 03 04.47488 13 17 28.60 +09 42 38.3          17.9 V EE023703
     K06E01B  C2006 03 04.50655 13 18 11.19 +09 46 23.4          17.5 V EE023703
     K06E01B  C2006 03 04.50814 13 18 13.28 +09 46 34.7          17.7 V EE023703
     K06E01B  C2006 03 04.50972 13 18 15.44 +09 46 46.7          17.5 V EE023703
     K06E01B  C2006 03 04.51131 13 18 17.60 +09 46 56.8          17.6 V EE023703
     K06E01B  C2006 03 05.09210 13 31 43.04 +10 52 39.5                 EE023J95
     K06E01B  C2006 03 05.09315 13 31 44.41 +10 52 46.4                 EE023J95
     K06E01B  C2006 03 05.09420 13 31 45.75 +10 52 53.4          17.9 R EE023J95
     K06E01B  C2006 03 05.24541 13 35 15.74 +11 09 57.0          17.5 R EE023854
     K06E01B  C2006 03 05.24742 13 35 18.35 +11 10 09.5          17.5 R EE023854
     K06E01B  C2006 03 05.24943 13 35 20.91 +11 10 23.0          18.1 R EE023854
     K06E01B  C2006 03 05.25144 13 35 23.40 +11 10 37.0          17.9 R EE023854
     K06E01B 5C2006 03 05.28484 13 36 06.55 +11 14 05.7          17.8 R EE023673
     K06E01B 5C2006 03 05.29104 13 36 14.28 +11 14 46.5                 EE023673
     K06E01B 5C2006 03 05.29363 13 36 17.70 +11 15 03.0                 EE023673
     K06E01B 5C2006 03 05.30119 13 36 27.28 +11 15 52.4                 EE023673
     K06E01B  C2006 03 05.37016 13 37 52.10 +11 23 24.5          18.3 V EE023G96
     K06E01B  C2006 03 05.37069 13 37 52.78 +11 23 27.8          18.3 V EE023G96
     K06E01B  C2006 03 05.37125 13 37 53.43 +11 23 31.3          18.3 V EE023G96
     K06E01B  C2006 03 05.37178 13 37 54.12 +11 23 34.8          18.3 V EE023G96
     K06E01B  C2006 03 05.39579 13 38 16.75 +11 25 34.6          18.2 R EE023932
     K06E01B  C2006 03 05.40777 13 38 31.61 +11 26 48.1          18.1 R EE023932
     K06E01B  C2006 03 05.41202 13 38 36.88 +11 27 14.0          18.1 R EE023932
     K06E01B  C2006 03 06.18382 13 54 40.10 +12 41 59.8                 EE023J95
     K06E01B  C2006 03 06.18480 13 54 41.21 +12 42 05.3                 EE023J95
     K06E01B  C2006 03 06.18578 13 54 42.36 +12 42 10.4          18.5 R EE023J95
     K06E01B  C2006 03 06.36505 13 58 18.91 +12 58 49.9          18.5 R EE023H36
     K06E01B  C2006 03 06.36734 13 58 21.49 +12 59 02.1          18.5 R EE023H36
     K06E01B  C2006 03 06.36964 13 58 24.00 +12 59 14.4          18.4 R EE023H36
     K06E01B  C2006 03 06.45105 13 59 56.22 +13 06 40.1          18.2 V EE023703
     K06E01B  C2006 03 06.45139 13 59 56.58 +13 06 41.9          18.4 V EE023G96
     K06E01B  C2006 03 06.45169 13 59 56.90 +13 06 43.7          18.3 V EE023G96
     K06E01B  C2006 03 06.45201 13 59 57.26 +13 06 44.8          18.1 V EE023G96
     K06E01B  C2006 03 06.45231 13 59 57.58 +13 06 46.7          18.3 V EE023G96
     K06E01B 3C2006 03 06.45436 13 59 59.69 +13 06 57.0          17.8 R EE023290
     K06E01B 3C2006 03 06.45632 14 00 01.84 +13 07 07.1          17.6 R EE023290
     K06E01B 3C2006 03 06.45763 14 00 03.27 +13 07 13.8          18.0 R EE023290
     K06E01B 3C2006 03 06.45935 14 00 05.13 +13 07 22.7          17.8 R EE023290
     K06E01B 3C2006 03 06.46060 14 00 06.49 +13 07 29.0          17.6 R EE023290
     K06E01B  C2006 03 06.47977 14 00 27.43 +13 09 07.6          18.6 V EE023703
     K06E01B  C2006 03 06.48514 14 00 33.26 +13 09 35.4          18.2 V EE023703
     K06E01B  C2006 03 06.49040 14 00 39.09 +13 10 01.2          18.2 V EE023703

Observer details:
290 Mt. Graham.  Observer W. H. Ryan.  1.8-m f/9.0 reflector + CCD.
673 Table Mountain Observatory, Wrightwood.  Observer J. Young.  0.6-m f/16
    Cassegrain + CCD.
703 Catalina Sky Survey.  Observers E. J. Christensen, A. P. Odell,
    E. C. Beshore.  Measurers E. C. Beshore, E. J. Christensen, G. J. Garradd,
    A. R. Gibbs, A. D. Grauer, R. E. Hill, R. A. Kowalski, S. M. Larson,
    R. H. McNaught.  0.68-m Schmidt + CCD.
854 Sabino Canyon Observatory, Tucson.  Observer J. E. McGaha.  0.36-m f/10.0
    Schmidt-Cassegrain + CCD.
932 John J. McCarthy Obs., New Milford.  Observer M. Robson.  0.4-m f/6.5
    Schmidt-Cassegrain + CCD.
G96 Mt. Lemmon Survey.  Observers R. E. Hill, R. Hill.  Measurers
    E. C. Beshore, E. J. Christensen, G. J. Garradd, A. R. Gibbs, A. D. Grauer,
    R. E. Hill, R. A. Kowalski, S. M. Larson, R. H. McNaught.  1.5-m reflector
    + CCD.
H36 Sandlot Observatory, Scranton.  Observer G. Hug.  0.30-m
    Schmidt-Cassegrain + CCD.
J95 Great Shefford.  Observer P. Birtwhistle.  0.40-m f/6.0 Schmidt-Cassegrain
    + CCD.

Orbital elements:
2006 EB1                                                 Earth MOID = 0.0352 AU
Epoch 2006 Mar. 6.0 TT = JDT 2453800.5                  MPC
M   0.22597              (2000.0)            P               Q
n   0.31720122     Peri.    5.00522     -0.96896470     -0.24145154
a   2.1293456      Node   160.76999     +0.22085059     -0.94186676
e   0.5183085      Incl.    9.25944     +0.11105146     -0.23364111
P   3.11           H   23.4           G   0.15           U   7
Residuals in seconds of arc
060304 703  0.3-  0.2-    060305 854  1.2+  0.2+    060306 H36  0.5+  0.1-
060304 703  0.1+  0.2-    060305 854  0.1-  1.0+    060306 H36  0.0   0.0
060304 703  0.6+  1.2-    060305 673  0.9+  0.4+    060306 703  0.7+  0.5-
060304 703  0.5+  0.2-    060305 673  1.1-  0.6+    060306 G96  0.3+  0.3-
060304 703  1.4+  0.3-    060305 673  0.9+  0.2+    060306 G96  0.2+  0.1-
060304 703  0.1+  0.7-    060305 673  1.2+  0.3+    060306 G96  0.4+  0.6-
060304 703  0.8+  0.6+    060305 G96  0.0   0.0     060306 G96  0.3+  0.3-
060304 703  0.0   0.0     060305 G96  0.4+  0.1-    060306 290  1.0+  0.3+
060304 703  0.5+  0.2-    060305 G96  0.2-  0.2-    060306 290  1.2+  0.3+
060304 703  0.3-  0.2-    060305 G96  0.4+  0.0     060306 290  1.2+  0.2+
060304 703  0.2+  0.6+    060305 932  0.7+  0.1+    060306 290  1.0+  0.3+
060304 703  0.5+  0.5-    060305 932  0.8+  0.2-    060306 290  1.0+  0.1+
060305 J95  0.2-  0.3-    060305 932  0.8+  0.4-    060306 703  0.3-  0.5-
060305 J95  0.1+  0.3-    060306 J95  0.0   0.2-    060306 703  0.5-  0.1-
060305 J95  0.1+  0.2-    060306 J95  0.1-  0.0     060306 703  1.0+  1.1-
060305 854  0.9+  0.7+    060306 J95  0.3+  0.1-
060305 854  1.4+  0.0     060306 H36  0.2-  0.2-

Ephemeris:
2006 EB1                 a,e,i = 2.13, 0.52, 9                   q = 1.0257
Date    TT    R. A. (2000) Decl.     Delta      r     Elong.  Phase     V
2006 03 06    13 51.01   +12 27.0    0.0443   1.026   138.7    39.7    18.3
2006 03 11    15 07.57   +17 29.2    0.0606   1.028   123.6    53.6    19.3
2006 03 16    15 48.93   +19 25.1    0.0804   1.034   117.3    58.7    20.1
2006 03 21    16 12.23   +20 14.9    0.102    1.043   115.3    59.7    20.7
2006 03 26    16 25.84   +20 38.1    0.123    1.056   115.5    58.5    21.1
2006 03 31    16 33.64   +20 47.1    0.144    1.072   117.0    56.1    21.4
2006 04 05    16 37.60   +20 45.4    0.166    1.091   119.3    53.1    21.6
2006 04 10    16 38.85   +20 34.2    0.187    1.112   122.1    49.7    21.8
2006 04 15    16 38.09   +20 13.9    0.208    1.136   125.4    46.1    22.0

Kyle E. Smalley              (C) Copyright 2006 MPC           M.P.E.C. 2006-E23

Read MPEC 2006-E22 Read MPEC 2006-E24


Our Web policy. Index to the CBAT/MPC/ICQ pages.


Valid HTML 4.01!